Location: Sungai Igah
(2.7333°N, 114.2500°E)
Time: 10:44:22
(UTC+00:00)

CZ-4B R/B - Pass Details

Date: 14 June 2021
Orbit: 488 x 648 km, 97.9° (Epoch: 04 August)

Event Time Altitude Azimuth Distance (km) Brightness Sun altitude
Rises 21:22:52 0° 17° (NNE) 2,944 7.2 -12.8°
Reaches altitude 10° 21:25:05 10° 20° (NNE) 2,040 6.4 -12.3°
Maximum altitude 21:29:31 63° 101° (ESE) 719 3.6 -11.2°
Drops below altitude 10° 21:33:54 10° 183° (S) 2,024 5.4 -10.2°
Sets 21:36:06 0° 186° (S) 2,919 6.2 -9.7°
